Simultaneous Nadir Overpasses (SNOs) Predictions

Prediction of SNOs between LANDSAT-8 and METOP-B Satellite Orbit:

Table of predicted SNOs for the next 14.0 days since TLE Epoch: 6/18/2021
Index Date (LANDSAT-8) Time (LANDSAT-8) Lat,Lon (LANDSAT-8) SZA (LANDSAT-8 ) Date (METOP-B) Time (METOP-B) Lat,Lon (METOP-B) SZA (METOP-B ) Distance(km) Time Diff (sec)
1 06/20/2021 11:38:29 81.12, 45.38 59.82 06/20/2021 11:38:10 81.12, 45.41 59.82 0.66 19
2 06/20/2021 12:27:55 -81.14,-146.71 120.14 06/20/2021 12:28:50 -81.14,-146.74 120.12 0.68 55
3 06/23/2021 07:12:44 81.12, 111.78 59.82 06/23/2021 07:12:33 81.11, 111.65 59.80 2.40 11
4 06/23/2021 08:02:10 -81.14, -80.28 120.14 06/23/2021 08:03:12 -81.14, -80.10 120.09 3.08 62
5 06/26/2021 02:47:00 81.12, 178.16 59.86 06/26/2021 02:46:56 81.12, 178.26 59.87 1.72 4
6 06/26/2021 03:36:26 -81.14, -13.87 120.09 06/26/2021 03:37:36 -81.14, -13.85 120.06 0.45 70
7 06/28/2021 21:31:50 -81.11, 76.82 120.06 06/28/2021 21:30:41 -81.10, 76.74 120.10 1.63 69
8 06/28/2021 22:21:16 81.11,-115.49 59.96 06/28/2021 22:21:20 81.11,-115.53 59.96 0.71 4
9 07/01/2021 17:06:05 -81.10, 143.17 119.91 07/01/2021 17:05:03 -81.11, 143.34 119.91 2.93 62



Historial Predications of SNOs between LANDSAT-8 and METOP-B
